This is the latest recevied weather packets stored in our database for station/object F4IEI-10. If no packets are shown the sender has not sent any weather packets the latest 10 day(s).
| Time | Temp. | Humidity | Pressure | Rain* | Wind** | Luminosity | Snow |
|---|---|---|---|---|---|---|---|
| 1777863518 | 11.11° C | 100% | 1012.6 hPa | - | - | - | - |
| 1777862618 | 10.56° C | 100% | 1012.7 hPa | - | - | - | - |
| 1777861725 | 10° C | 100% | 1012.7 hPa | - | - | - | - |
| 1777860818 | 10° C | 100% | 1012.4 hPa | - | - | - | - |
| 1777859918 | 10.56° C | 100% | 1012.4 hPa | - | - | - | - |
| 1777859018 | 10.56° C | 100% | 1012.5 hPa | - | - | - | - |
| 1777858118 | 10.56° C | 100% | 1012.5 hPa | - | - | - | - |
| 1777857218 | 10.56° C | 99% | 1012.4 hPa | - | - | - | - |
| 1777856324 | 11.11° C | 99% | 1012.2 hPa | - | - | - | - |
| 1777855418 | 11.11° C | 99% | 1012.3 hPa | - | - | - | - |
| 1777854517 | 11.11° C | 100% | 1012.2 hPa | - | - | - | - |
| 1777853617 | 11.67° C | 100% | 1012.2 hPa | - | - | - | - |
| 1777852717 | 11.67° C | 100% | 1012.4 hPa | - | - | - | - |
| 1777851816 | 11.67° C | 100% | 1012.4 hPa | - | - | - | - |
| 1777850916 | 11.67° C | 100% | 1012.4 hPa | - | - | - | - |
| 1777850016 | 12.22° C | 100% | 1012.4 hPa | - | - | - | - |
| 1777849116 | 12.22° C | 97% | 1012.1 hPa | - | - | - | - |
| 1777848216 | 12.78° C | 100% | 1012.3 hPa | - | - | - | - |
| 1777847320 | 12.78° C | 100% | 1012.3 hPa | - | - | - | - |
| 1777846418 | 12.78° C | 100% | 1012.5 hPa | - | - | - | - |
| 1777845518 | 12.78° C | 100% | 1012.3 hPa | - | - | - | - |
| 1777844618 | 12.78° C | 98% | 1012.3 hPa | - | - | - | - |
| 1777843718 | 12.78° C | 91% | 1012.3 hPa | - | - | - | - |
| 1777842818 | 13.33° C | 91% | 1012.2 hPa | - | - | - | - |
| 1777841918 | 13.33° C | 100% | 1012.1 hPa | - | - | - | - |
* Rain since midnight (hover to see other rain measurements)
** Current wind speed in m/s (hover to see current wind gust speed)